THOR ABLESTAR DEB, 134

Orbit data source: Space-Track

THOR ABLESTAR DEB, 134 is space debris in LEO originally from a launch on Thu, 29 Jun 1961 UTC launched from the Air Force Eastern Test Range (AFETR). Debris objects in space refer to the collection of defunct objects orbiting the Earth. Examples of debris include non-operational satellites, rocket bodies, and fragments generated from explosions, collisions, or faulty payload assembly.

Loading next visibility...
Identifier
134, 1961-015U
Orbit
LEO
Country
Flag of USUS
Related business
Manufacturer
Unknown
Mission
Spacecraft
Bus & Motor
Unknown
Mass
Unknown
Launch date (UTC)
1961-06-29 (65 years ago)
Launch vehicle
Unknown
Launch site
Air Force Eastern Test Range (AFETR)
Object type
Payload
Rocket body
Debris
Shape & HBR
Unknown shape, 1.1 m
Radar Cross Section
Large (>1 m²)

Expand to show TLE details & history
Last TLE update: 6 hours ago

TLE from 6 hours ago
0 THOR ABLESTAR DEB
1 00134U 61015U   26101.24182704  .00000086  00000-0  11236-3 0  9999
2 00134  66.8805 211.5913 0087207 242.2770 116.9448 13.97745837296344
Epoch: 2026-04-11T05:48Z
TLE epoch observation values (Epoch: 2026-04-11T05:48:13.856Z)
Latitude
0.00006°
Longitude
-74.93036°
Altitude
932.908 km
Speed
7.371 km/s
True Right ascension
14h 06m 21s
True Declination
0° 00' 00"
Sunlit
Object was in full shadow at epoch
Visualization orbit readout
Latitude
Unknown
Longitude
Unknown
Altitude
Unknown
Speed
Unknown
Apparent Right ascension
Unknown
Apparent Declination
Unknown
Sunlit
N/A
Visualization observer readout
Local Sidereal Time
18:31:01
Azimuth
Unknown
Elevation
Unknown
Doppler factor
Unknown
Orbital elements
Apogee altitude
963.46 km
Perigee altitude
836.52 km
Semi-major axis
7,278.127 km
Eccentricity
0.00872
Inclination
66.8805°
RAAN
211.5913°
Arg. of periapsis
242.277°
True anomaly
117.83122°
Mean anomaly
116.9448°
Eccentric anomaly
117.38845°
Mean motion
3.49554 °/min
Orbital period
102.99 mins
BSTAR
0.00011236
Loading maneuver chart data...
Computing Atmospheric mass density...
Loading historical data...
Loading historical data...
Loading historical data...
Loading historical data...
Loading historical data...
Loading historical data...
Loading historical data...

Documentation

Showing up to 5 results
|